Location: Rounton
(54.4000°N, 1.3500°W)
Time: 04:52:01
(UTC+00:00)

A-11 Canister half - Pass Details

Date: 07 December 2021
Orbit: 1516 x 1684 km, 47.2° (Epoch: 21 January)

Event Time Altitude Azimuth Distance (km) Brightness Sun altitude
Rises 12:16:29 0° 283° (WNW) 4,872 11.5 12.8°
Reaches altitude 10° 12:20:01 10° 274° (W) 3,903 11.2 12.8°
Maximum altitude 12:28:24 32° 217° (SW) 2,591 11.3 12.6°
Drops below altitude 10° 12:36:54 10° 160° (SSE) 3,941 12.4 12.5°
Sets 12:40:31 0° 151° (SSE) 4,925 12.5 12.4°
